FW6831 Weather Reports


time (UTC)temp
C
wind
direction
speed
KPH
gust
KPH
rain 1hr
cm
rain 24hr
cm
rain mn
cm
humidity
%
barometer
mb
20260509000541 17 0 0.0 4.8 0.00 0.00 0.00 63 1024.0
20260509000047 18 0 0.0 4.8 0.00 0.00 0.00 63 1024.0
20260508235544 18 186 1.6 6.4 0.00 0.00 0.00 63 1024.1
20260508235045 17 0 0.0 6.4 0.00 0.00 0.00 63 1024.0
20260508234548 18 204 3.2 6.4 0.00 0.00 0.00 62 1024.0
20260508234046 18 0 0.0 1.6 0.00 0.00 0.00 62 1024.0
20260508233544 18 0 0.0 8.0 0.00 0.00 0.00 64 1023.9
20260508233056 17 0 0.0 8.0 0.00 0.00 0.00 63 1023.9
20260508232546 18 185 0.0 3.2 0.00 0.00 0.00 64 1023.9
20260508232044 17 288 1.6 3.2 0.00 0.00 0.00 64 1023.8
20260508231556 18 0 0.0 0.0 0.00 0.00 0.00 68 1023.8
20260508231043 17 0 0.0 0.0 0.00 0.00 0.00 70 1023.8
20260508230541 16 0 0.0 0.0 0.00 0.00 0.00 71 1023.8
20260508230049 16 0 0.0 0.0 0.00 0.00 0.00 72 1023.7
20260508225544 16 0 0.0 0.0 0.00 0.00 0.00 71 1023.6
20260508225044 16 0 0.0 0.0 0.00 0.00 0.00 72 1023.6
20260508224553 16 0 0.0 0.0 0.00 0.00 0.00 74 1023.7
20260508224044 15 0 0.0 0.0 0.00 0.00 0.00 75 1023.6
20260508223548 15 0 0.0 0.0 0.00 0.00 0.00 76 1023.4
20260508223054 15 0 0.0 0.0 0.00 0.00 0.00 77 1023.3
20260508222542 15 0 0.0 0.0 0.00 0.00 0.00 78 1023.3
20260508222043 15 0 0.0 0.0 0.00 0.00 0.00 79 1023.2
20260508221549 14 0 0.0 0.0 0.00 0.00 0.00 80 1023.2
20260508221046 13 0 0.0 0.0 0.00 0.00 0.00 80 1023.2
20260508220545 13 0 0.0 0.0 0.00 0.00 0.00 82 1023.1
20260508220110 12 0 0.0 0.0 0.00 0.00 0.00 83 1023.1
20260508215544 12 0 0.0 0.0 0.00 0.00 0.00 84 1023.0
20260508215043 11 0 0.0 0.0 0.00 0.00 0.00 85 1022.8
20260508214606 11 0 0.0 1.6 0.00 0.00 0.00 85 1022.8
20260508214042 10 0 0.0 1.6 0.00 0.00 0.00 85 1022.8
20260508213541 10 0 0.0 1.6 0.00 0.00 0.00 85 1022.8
20260508213054 10 316 0.0 0.0 0.00 0.00 0.00 85 1022.7
20260508212544 10 0 0.0 0.0 0.00 0.00 0.00 87 1022.6
20260508212041 9 0 0.0 0.0 0.00 0.00 0.00 88 1022.4
20260508211553 8 0 0.0 0.0 0.00 0.00 0.00 89 1022.4
20260508211043 8 0 0.0 0.0 0.00 0.00 0.00 88 1022.4
20260508210544 8 0 0.0 0.0 0.00 0.00 0.00 89 1022.4
20260508210054 8 0 0.0 0.0 0.00 0.00 0.00 88 1022.3
20260508205543 8 0 0.0 0.0 0.00 0.00 0.00 89 1022.4
20260508205043 8 0 0.0 0.0 0.00 0.00 0.00 89 1022.3
20260508204552 8 0 0.0 0.0 0.00 0.00 0.00 89 1022.3
20260508204044 8 0 0.0 0.0 0.00 0.00 0.00 88 1022.2
20260508203546 8 0 0.0 0.0 0.00 0.00 0.00 88 1022.1
20260508203100 8 0 0.0 0.0 0.00 0.00 0.00 87 1022.0
20260508202544 8 0 0.0 0.0 0.00 0.00 0.00 88 1021.8
20260508202043 8 0 0.0 0.0 0.00 0.00 0.00 88 1021.8
20260508201553 8 0 0.0 0.0 0.00 0.00 0.00 88 1021.9
20260508201045 8 0 0.0 0.0 0.00 0.00 0.00 88 1021.8
20260508200543 8 0 0.0 0.0 0.00 0.00 0.00 87 1021.6
20260508200050 8 0 0.0 0.0 0.00 0.00 0.00 87 1021.6
20260508195541 8 0 0.0 1.6 0.00 0.00 0.00 87 1021.6
20260508195044 8 0 0.0 1.6 0.00 0.00 0.00 87 1021.6
20260508194559 8 0 0.0 1.6 0.00 0.00 0.00 87 1021.5
20260508194043 8 0 0.0 1.6 0.00 0.00 0.00 87 1021.3
20260508193541 8 308 0.0 1.6 0.00 0.00 0.00 87 1021.4
20260508193104 8 307 0.0 1.6 0.00 0.00 0.00 87 1021.2
20260508192544 8 0 0.0 1.6 0.00 0.00 0.00 87 1021.0
20260508192045 8 0 0.0 1.6 0.00 0.00 0.00 88 1021.0
20260508191551 8 307 0.0 1.6 0.00 0.00 0.00 88 1021.0
20260508191043 8 0 0.0 1.6 0.00 0.00 0.00 88 1020.9
20260508190543 8 316 0.0 1.6 0.00 0.00 0.00 88 1020.9
20260508190105 8 303 0.0 1.6 0.00 0.00 0.00 88 1020.8
20260508185544 8 302 0.0 1.6 0.00 0.00 0.00 88 1020.8
20260508185044 8 321 0.0 1.6 0.00 0.00 0.00 88 1020.8
20260508184600 8 0 0.0 1.6 0.00 0.00 0.00 88 1020.8
20260508184043 8 324 0.0 1.6 0.00 0.00 0.00 87 1020.7
20260508183543 8 0 0.0 1.6 0.00 0.00 0.00 88 1020.6
20260508183050 8 320 0.0 1.6 0.00 0.00 0.00 88 1020.6
20260508182544 8 323 0.0 1.6 0.00 0.00 0.00 87 1020.6
20260508182043 8 321 0.0 1.6 0.00 0.00 0.00 87 1020.6
20260508181602 8 0 0.0 0.0 0.00 0.00 0.00 86 1020.5
20260508181043 8 0 0.0 0.0 0.00 0.00 0.00 86 1020.5
20260508180545 8 0 0.0 0.0 0.00 0.00 0.00 86 1020.6
20260508180052 8 0 0.0 0.0 0.00 0.00 0.00 85 1020.6
20260508175544 8 0 0.0 0.0 0.00 0.00 0.00 86 1020.6
20260508175045 8 0 0.0 0.0 0.00 0.00 0.00 85 1020.6
20260508174549 8 0 0.0 0.0 0.00 0.00 0.00 85 1020.5
20260508174043 8 0 0.0 0.0 0.00 0.00 0.00 85 1020.7
20260508173544 8 0 0.0 0.0 0.00 0.00 0.00 83 1020.6
20260508173048 8 0 0.0 0.0 0.00 0.00 0.00 84 1020.7
20260508172544 8 0 0.0 0.0 0.00 0.00 0.00 84 1020.6
20260508172043 8 0 0.0 0.0 0.00 0.00 0.00 84 1020.6
20260508171552 8 0 0.0 1.6 0.00 0.00 0.00 84 1020.6
20260508171042 8 0 0.0 1.6 0.00 0.00 0.00 85 1020.6
20260508170540 8 0 0.0 1.6 0.00 0.00 0.00 83 1020.6
20260508170052 8 0 0.0 0.0 0.00 0.00 0.00 83 1020.4
20260508165543 8 0 0.0 0.0 0.00 0.00 0.00 84 1020.5
20260508165043 9 0 0.0 0.0 0.00 0.00 0.00 84 1020.6
20260508164551 10 0 0.0 0.0 0.00 0.00 0.00 82 1020.4
20260508164043 10 0 0.0 0.0 0.00 0.00 0.00 80 1020.6
20260508163543 10 0 0.0 0.0 0.00 0.00 0.00 75 1020.3
20260508163050 10 0 0.0 0.0 0.00 0.00 0.00 76 1020.5
20260508162543 10 0 0.0 0.0 0.00 0.00 0.00 76 1020.5
20260508162042 10 0 0.0 0.0 0.00 0.00 0.00 75 1020.5
20260508161551 10 0 0.0 0.0 0.00 0.00 0.00 75 1020.4
20260508161045 10 0 0.0 0.0 0.00 0.00 0.00 75 1020.4
20260508160546 10 0 0.0 0.0 0.00 0.00 0.00 74 1020.4
20260508160109 10 0 0.0 0.0 0.00 0.00 0.00 75 1020.3
20260508155542 10 0 0.0 0.0 0.00 0.00 0.00 74 1020.3
20260508155042 10 0 0.0 0.0 0.00 0.00 0.00 74 1020.3
20260508154557 10 0 0.0 0.0 0.00 0.00 0.00 74 1020.3
20260508154043 11 0 0.0 0.0 0.00 0.00 0.00 75 1020.4
20260508153541 11 0 0.0 0.0 0.00 0.00 0.00 74 1020.4
20260508153048 11 0 0.0 0.0 0.00 0.00 0.00 73 1020.4
20260508152543 11 0 0.0 0.0 0.00 0.00 0.00 72 1020.4
20260508152045 11 0 0.0 0.0 0.00 0.00 0.00 73 1020.3
20260508151552 11 0 0.0 0.0 0.00 0.00 0.00 72 1020.3
20260508151043 11 0 0.0 0.0 0.00 0.00 0.00 73 1020.3
20260508150540 11 0 0.0 0.0 0.00 0.00 0.00 71 1020.2
20260508150051 11 0 0.0 0.0 0.00 0.00 0.00 71 1020.3
20260508145544 11 0 0.0 0.0 0.00 0.00 0.00 70 1020.3
20260508145042 11 0 0.0 0.0 0.00 0.00 0.00 67 1020.2
20260508144549 12 0 0.0 0.0 0.00 0.00 0.00 66 1020.4
20260508144044 12 0 0.0 0.0 0.00 0.00 0.00 66 1020.4
20260508143543 12 0 0.0 0.0 0.00 0.00 0.00 65 1020.3
20260508143105 12 0 0.0 0.0 0.00 0.00 0.00 64 1020.2
20260508142544 12 0 0.0 0.0 0.00 0.00 0.00 64 1020.1
20260508142044 12 0 0.0 0.0 0.00 0.00 0.00 65 1020.2
20260508141555 12 0 0.0 0.0 0.00 0.00 0.00 64 1020.2
20260508141040 12 0 0.0 0.0 0.00 0.00 0.00 66 1020.3
20260508140544 12 0 0.0 0.0 0.00 0.00 0.00 65 1020.4
20260508140051 12 0 0.0 0.0 0.00 0.00 0.00 67 1020.3
20260508135546 12 0 0.0 0.0 0.00 0.00 0.00 66 1020.2
20260508135044 12 0 0.0 0.0 0.00 0.00 0.00 67 1020.2
20260508134549 12 0 0.0 0.0 0.00 0.00 0.00 64 1020.2
20260508134043 12 0 0.0 0.0 0.00 0.00 0.00 63 1020.2
20260508133545 12 0 0.0 1.6 0.00 0.00 0.00 64 1020.1
20260508133057 12 0 0.0 1.6 0.00 0.00 0.00 62 1020.2
20260508132544 12 0 0.0 1.6 0.00 0.00 0.00 63 1020.1
20260508132043 13 311 0.0 3.2 0.00 0.00 0.00 63 1019.9
20260508131548 13 317 0.0 3.2 0.00 0.00 0.00 61 1019.9
20260508131046 13 312 0.0 1.6 0.00 0.00 0.00 61 1019.9
20260508130543 13 297 0.0 1.6 0.00 0.00 0.00 63 1019.9
20260508130056 13 329 0.0 1.6 0.00 0.00 0.00 62 1019.7
20260508125542 13 326 0.0 1.6 0.00 0.00 0.00 62 1019.6
20260508125039 13 0 0.0 1.6 0.00 0.00 0.00 59 1019.6
20260508124548 13 339 0.0 3.2 0.00 0.00 0.00 59 1019.7
20260508124043 13 359 0.0 3.2 0.00 0.00 0.00 58 1019.8
20260508123545 13 0 1.6 3.2 0.00 0.00 0.00 59 1019.7
20260508123053 13 0 0.0 1.6 0.00 0.00 0.00 61 1019.7
20260508122545 13 0 0.0 1.6 0.00 0.00 0.00 61 1019.7
20260508122045 13 0 0.0 1.6 0.00 0.00 0.00 62 1019.8
20260508121605 13 331 0.0 1.6 0.00 0.00 0.00 61 1019.9
20260508121044 13 0 0.0 1.6 0.00 0.00 0.00 62 1020.0
20260508120543 13 0 0.0 1.6 0.00 0.00 0.00 62 1019.9
20260508120054 12 335 0.0 1.6 0.00 0.00 0.00 65 1020.0
20260508115548 12 0 0.0 1.6 0.00 0.00 0.00 64 1019.9
20260508115044 12 0 0.0 3.2 0.00 0.00 0.00 65 1019.9
20260508114548 12 0 0.0 3.2 0.00 0.00 0.00 66 1020.1
20260508114044 12 0 0.0 1.6 0.00 0.00 0.00 67 1019.9
20260508113546 12 0 0.0 1.6 0.00 0.00 0.00 68 1020.0
20260508113052 13 0 0.0 1.6 0.00 0.00 0.00 67 1020.0
20260508112544 13 0 0.0 1.6 0.00 0.00 0.00 66 1020.0
20260508112048 13 321 0.0 3.2 0.00 0.00 0.00 67 1019.8
20260508111550 13 321 0.0 3.2 0.00 0.00 0.00 66 1019.9
20260508111045 13 323 0.0 1.6 0.00 0.00 0.00 66 1019.8
20260508110544 13 316 0.0 1.6 0.00 0.00 0.00 63 1019.7
20260508110059 13 314 1.6 3.2 0.00 0.00 0.00 66 1019.8
20260508105547 13 305 0.0 3.2 0.00 0.00 0.00 64 1019.8
20260508105046 13 318 0.0 3.2 0.00 0.00 0.00 63 1019.6
20260508104555 14 302 0.0 3.2 0.00 0.00 0.00 61 1019.6
20260508104044 14 0 0.0 3.2 0.00 0.00 0.00 60 1019.7
20260508103545 14 330 0.0 3.2 0.00 0.00 0.00 61 1019.7
20260508103055 14 0 0.0 1.6 0.00 0.00 0.00 61 1019.6
20260508102544 14 0 0.0 1.6 0.00 0.00 0.00 61 1019.7
20260508102045 13 0 0.0 0.0 0.00 0.00 0.00 63 1019.5
20260508101552 13 0 0.0 3.2 0.00 0.00 0.00 65 1019.6
20260508101045 13 0 0.0 3.2 0.00 0.00 0.00 65 1019.6
20260508100546 13 322 0.0 3.2 0.00 0.00 0.00 69 1019.6
20260508100051 13 319 0.0 3.2 0.00 0.00 0.00 68 1019.4
20260508095545 13 314 0.0 3.2 0.00 0.00 0.00 68 1019.3
20260508095048 13 322 1.6 3.2 0.00 0.00 0.00 68 1019.3
20260508094609 13 0 1.6 3.2 0.00 0.00 0.00 67 1019.3
20260508094044 13 333 0.0 3.2 0.00 0.00 0.00 69 1019.3
20260508093545 13 323 1.6 3.2 0.00 0.00 0.00 69 1019.2
20260508093049 13 338 1.6 3.2 0.00 0.00 0.00 68 1019.3
20260508092545 13 321 1.6 3.2 0.00 0.00 0.00 64 1019.2
20260508092044 13 0 1.6 3.2 0.00 0.00 0.00 67 1019.2
20260508091555 13 321 1.6 3.2 0.00 0.00 0.00 62 1019.1
20260508091045 13 316 1.6 3.2 0.00 0.00 0.00 64 1019.1
20260508090545 13 322 0.0 3.2 0.00 0.00 0.00 67 1019.0
20260508090051 13 317 1.6 3.2 0.00 0.00 0.00 66 1019.0
20260508085543 13 311 1.6 3.2 0.00 0.00 0.00 70 1018.9
20260508085046 13 316 0.0 3.2 0.00 0.00 0.00 67 1018.8
20260508084553 13 320 1.6 3.2 0.00 0.00 0.00 68 1018.8
20260508084043 13 315 1.6 3.2 0.00 0.00 0.00 65 1018.7
20260508083543 13 319 1.6 3.2 0.00 0.00 0.00 69 1018.7
20260508083130 13 324 0.0 3.2 0.00 0.00 0.00 69 1018.7
20260508082542 13 321 1.6 3.2 0.00 0.00 0.00 69 1018.6
20260508082045 13 321 1.6 1.6 0.00 0.00 0.00 71 1018.5
20260508081555 13 316 0.0 3.2 0.00 0.00 0.00 72 1018.4
20260508081046 13 317 1.6 3.2 0.00 0.00 0.00 72 1018.4
20260508080545 13 305 1.6 4.8 0.00 0.00 0.00 73 1018.0
20260508080100 13 320 1.6 4.8 0.00 0.00 0.00 68 1018.0
20260508075543 14 323 0.0 3.2 0.00 0.00 0.00 68 1017.9
20260508075042 14 0 0.0 0.0 0.00 0.00 0.00 69 1017.9
20260508074548 14 0 0.0 0.0 0.00 0.00 0.00 69 1017.7
20260508074044 15 0 0.0 0.0 0.00 0.00 0.00 68 1017.7
20260508073542 15 0 0.0 0.0 0.00 0.00 0.00 62 1017.8
20260508073057 15 0 0.0 0.0 0.00 0.00 0.00 63 1017.7
20260508072544 15 0 0.0 0.0 0.00 0.00 0.00 64 1017.8
20260508072042 15 0 0.0 0.0 0.00 0.00 0.00 63 1017.7
20260508071555 16 0 0.0 0.0 0.00 0.00 0.00 63 1017.7
20260508071042 16 0 0.0 0.0 0.00 0.00 0.00 62 1017.6
20260508070542 16 0 0.0 0.0 0.00 0.00 0.00 61 1017.5
20260508070048 16 0 0.0 0.0 0.00 0.00 0.00 63 1017.6
20260508065544 17 0 0.0 0.0 0.00 0.00 0.00 59 1017.5
20260508065044 17 0 0.0 0.0 0.00 0.00 0.00 59 1017.4
20260508064607 17 0 0.0 0.0 0.00 0.00 0.00 59 1017.4
20260508064043 17 0 0.0 0.0 0.00 0.00 0.00 56 1017.4
20260508063543 18 0 0.0 0.0 0.00 0.00 0.00 54 1017.3
20260508063048 18 0 0.0 0.0 0.00 0.00 0.00 51 1017.2
20260508062542 18 0 0.0 0.0 0.00 0.00 0.00 49 1017.2
20260508062042 18 0 0.0 0.0 0.00 0.00 0.00 46 1017.3
20260508061549 18 0 0.0 0.0 0.00 0.00 0.00 46 1017.2
20260508061042 18 0 0.0 0.0 0.00 0.00 0.00 46 1017.2
20260508060546 19 0 0.0 0.0 0.00 0.00 0.00 44 1017.2
20260508060047 19 0 0.0 0.0 0.00 0.00 0.00 44 1017.2
20260508055544 19 0 0.0 0.0 0.00 0.00 0.00 42 1017.3
20260508055044 19 0 0.0 0.0 0.00 0.00 0.00 42 1017.3
20260508054554 20 0 0.0 3.2 0.00 0.00 0.00 39 1017.3
20260508054048 20 0 0.0 3.2 0.00 0.00 0.00 38 1017.3
20260508053545 20 0 0.0 0.0 0.00 0.00 0.00 34 1017.3
20260508053049 20 0 0.0 1.6 0.00 0.00 0.00 35 1017.5
20260508052545 20 0 0.0 1.6 0.00 0.00 0.00 37 1017.5
20260508052047 20 0 0.0 6.4 0.00 0.00 0.00 37 1017.4
20260508051550 21 0 0.0 6.4 0.00 0.00 0.00 35 1017.5
20260508051045 21 0 1.6 6.4 0.00 0.00 0.00 31 1017.5
20260508050545 21 0 0.0 9.7 0.00 0.00 0.00 32 1017.4
20260508050058 21 221 1.6 11.3 0.00 0.00 0.00 31 1017.5
20260508045546 21 0 0.0 11.3 0.00 0.00 0.00 32 1017.5
20260508045047 21 341 3.2 11.3 0.00 0.00 0.00 29 1017.5
20260508044556 22 305 0.0 3.2 0.00 0.00 0.00 30 1017.6
20260508044043 22 0 0.0 4.8 0.00 0.00 0.00 30 1017.7
20260508043544 21 0 0.0 6.4 0.00 0.00 0.00 31 1017.7
20260508043055 22 1 1.6 6.4 0.00 0.00 0.00 28 1017.7
20260508042545 22 0 0.0 4.8 0.00 0.00 0.00 31 1017.7
20260508042047 21 268 1.6 4.8 0.00 0.00 0.00 31 1017.7
20260508041603 21 259 1.6 8.0 0.00 0.00 0.00 30 1017.8
20260508041047 21 0 1.6 8.0 0.00 0.00 0.00 30 1017.8
20260508040544 21 266 0.0 6.4 0.00 0.00 0.00 28 1017.8
20260508040110 21 188 1.6 9.7 0.00 0.00 0.00 29 1017.9
20260508035544 21 0 0.0 9.7 0.00 0.00 0.00 32 1018.0
20260508035044 21 223 0.0 4.8 0.00 0.00 0.00 30 1018.0
20260508034555 21 276 1.6 9.7 0.00 0.00 0.00 32 1018.0
20260508034044 21 0 3.2 9.7 0.00 0.00 0.00 32 1018.1
20260508033543 21 0 1.6 9.7 0.00 0.00 0.00 33 1018.1
20260508033053 20 226 4.8 9.7 0.00 0.00 0.00 33 1018.2
20260508032544 21 282 1.6 9.7 0.00 0.00 0.00 33 1018.3
20260508032046 21 339 3.2 9.7 0.00 0.00 0.00 33 1018.3
20260508031551 21 252 0.0 9.7 0.00 0.00 0.00 34 1018.4
20260508031044 21 0 0.0 9.7 0.00 0.00 0.00 35 1018.4
20260508030544 20 257 1.6 9.7 0.00 0.00 0.00 33 1018.4
20260508030109 20 309 0.0 8.0 0.00 0.00 0.00 36 1018.5
20260508025545 20 245 3.2 8.0 0.00 0.00 0.00 35 1018.4
20260508025044 20 269 1.6 8.0 0.00 0.00 0.00 37 1018.4
20260508024558 20 285 1.6 11.3 0.00 0.00 0.00 36 1018.6
20260508024044 20 240 0.0 11.3 0.00 0.00 0.00 35 1018.7
20260508023544 20 235 3.2 8.0 0.00 0.00 0.00 35 1018.8
20260508023049 20 188 3.2 8.0 0.00 0.00 0.00 34 1018.7
20260508022544 20 24 3.2 8.0 0.00 0.00 0.00 34 1018.8
20260508022044 20 56 3.2 11.3 0.00 0.00 0.00 33 1018.8
20260508021549 19 1 3.2 11.3 0.00 0.00 0.00 35 1018.9
20260508021043 20 187 1.6 11.3 0.00 0.00 0.00 35 1019.1
20260508020544 20 245 1.6 8.0 0.00 0.00 0.00 35 1019.3
20260508020050 20 169 0.0 6.4 0.00 0.00 0.00 35 1019.5
20260508015544 20 290 0.0 11.3 0.00 0.00 0.00 32 1019.5
20260508015044 20 0 1.6 11.3 0.00 0.00 0.00 33 1019.5
20260508014553 19 309 3.2 9.7 0.00 0.00 0.00 33 1019.7
20260508014045 19 340 1.6 6.4 0.00 0.00 0.00 36 1019.9
20260508013544 19 242 1.6 4.8 0.00 0.00 0.00 36 1020.1
20260508013048 18 297 1.6 4.8 0.00 0.00 0.00 37 1020.1
20260508012544 18 222 0.0 11.3 0.00 0.00 0.00 36 1020.0
20260508012044 18 304 1.6 11.3 0.00 0.00 0.00 38 1020.2
20260508011600 18 323 1.6 8.0 0.00 0.00 0.00 37 1020.2
20260508011045 18 305 1.6 8.0 0.00 0.00 0.00 39 1020.4
20260508010544 18 332 1.6 8.0 0.00 0.00 0.00 36 1020.4
20260508010059 18 245 1.6 4.8 0.00 0.00 0.00 36 1020.4
20260508005544 18 306 0.0 6.4 0.00 0.00 0.00 38 1020.5
20260508005044 18 296 1.6 6.4 0.00 0.00 0.00 39 1020.7
20260508004559 17 224 1.6 8.0 0.00 0.00 0.00 37 1020.6
20260508004044 18 274 0.0 8.0 0.00 0.00 0.00 41 1020.9
20260508003543 17 242 0.0 8.0 0.00 0.00 0.00 39 1020.9
20260508003108 17 174 3.2 8.0 0.00 0.00 0.00 36 1020.9
20260508002544 17 0 1.6 8.0 0.00 0.00 0.00 39 1020.9
20260508002044 17 312 3.2 9.7 0.00 0.00 0.00 38 1021.0
20260508001552 17 360 1.6 9.7 0.00 0.00 0.00 37 1021.1
20260508001044 16 268 1.6 9.7 0.00 0.00 0.00 37 1021.1